CW0009 Weather Reports


time (UTC)temp
C
wind
direction
speed
KPH
gust
KPH
rain 1hr
cm
rain 24hr
cm
rain mn
cm
humidity
%
barometer
mb
20190121030011 -4 50 0.0 0.0 0.00 0.00 0.00 84 1023.0
20190121025013 -4 50 0.0 0.0 0.00 0.00 0.00 84 1023.0
20190121024018 -4 50 0.0 0.0 0.00 0.00 0.00 84 1023.0
20190121023013 -4 50 0.0 0.0 0.00 0.00 0.00 85 1023.0
20190121022038 -4 50 0.0 0.0 0.00 0.00 0.00 85 1023.0
20190121020033 -4 50 0.0 0.0 0.00 0.00 0.00 85 1023.0
20190121015034 -4 50 0.0 0.0 0.00 0.00 0.00 85 1023.0
20190121014014 -4 50 0.0 0.0 0.00 0.00 0.00 85 1023.0
20190121013035 -3 50 0.0 0.0 0.00 0.00 0.00 85 1023.0
20190121011014 -3 50 0.0 0.0 0.00 0.00 0.00 85 1023.0
20190121004014 -3 50 0.0 0.0 0.00 0.00 0.00 85 1023.0
20190121003014 -3 50 0.0 0.0 0.00 0.00 0.00 86 1023.0
20190121002013 -3 50 0.0 0.0 0.00 0.00 0.00 86 1022.0
20190121001016 -3 50 0.0 0.0 0.00 0.00 0.00 86 1022.0
20190121000033 -3 50 0.0 0.0 0.00 0.00 0.00 86 1022.0
20190120235013 -3 50 0.0 0.0 0.00 0.00 0.00 86 1022.0
20190120234014 -3 50 0.0 0.0 0.00 0.00 0.00 86 1022.0
20190120233014 26 50 0.0 0.0 0.00 0.00 0.00 43 1022.0
20190120232014 -3 50 0.0 0.0 0.00 0.00 0.00 86 1022.0
20190120230012 -2 50 0.0 0.0 0.00 0.00 0.00 86 1022.0
20190120225013 -2 50 0.0 0.0 0.00 0.00 0.00 86 1022.0
20190120224013 -2 50 0.0 0.0 0.00 0.00 0.00 86 1022.0
20190120223035 -2 50 0.0 0.0 0.00 0.00 0.00 86 1022.0
20190120221014 -2 50 0.0 0.0 0.00 0.00 0.00 87 1022.0
20190120220033 -2 50 0.0 0.0 0.00 0.00 0.00 87 1022.0
20190120215035 -2 50 0.0 0.0 0.00 0.00 0.00 87 1022.0
20190120214014 -2 50 0.0 0.0 0.00 0.00 0.00 87 1022.0
20190120213013 -2 50 0.0 0.0 0.00 0.00 0.00 87 1022.0
20190120212013 -2 50 0.0 0.0 0.00 0.00 0.00 87 1022.0
20190120211036 -2 50 0.0 0.0 0.00 0.00 0.00 87 1022.0
20190120210012 -2 50 0.0 0.0 0.00 0.00 0.00 87 1021.0
20190120205035 -2 50 0.0 0.0 0.00 0.00 0.00 87 1021.0
20190120204013 -2 50 0.0 0.0 0.00 0.00 0.00 87 1021.0
20190120203035 -2 50 0.0 0.0 0.00 0.00 0.00 87 1021.0
20190120202013 -2 50 0.0 0.0 0.00 0.00 0.00 87 1021.0
20190120201014 -2 50 0.0 0.0 0.00 0.00 0.00 87 1021.0
20190120200013 -2 50 0.0 0.0 0.00 0.00 0.00 87 1020.0
20190120195034 -1 50 0.0 0.0 0.00 0.00 0.00 87 1020.0
20190120194014 -1 50 0.0 0.0 0.00 0.00 0.00 87 1020.0
20190120192035 -1 50 0.0 0.0 0.00 0.00 0.00 88 1020.0
20190120191014 -1 50 0.0 0.0 0.00 0.00 0.00 88 1020.0
20190120185034 -1 50 0.0 1.6 0.00 0.00 0.00 88 1020.0
20190120184014 -1 50 0.0 1.6 0.00 0.00 0.00 88 1020.0
20190120183014 -1 50 1.6 3.2 0.00 0.00 0.00 88 1019.0
20190120182016 -1 50 1.6 3.2 0.00 0.00 0.00 88 1019.0
20190120180012 0 50 0.0 0.0 0.00 0.00 0.00 88 1019.0
20190120175013 0 50 0.0 0.0 0.00 0.00 0.00 89 1019.0
20190120174014 0 50 0.0 0.0 0.00 0.00 0.00 89 1019.0
20190120173014 0 50 0.0 0.0 0.00 0.00 0.00 89 1019.0
20190120172034 0 50 0.0 0.0 0.00 0.00 0.00 89 1019.0
20190120171014 0 50 0.0 0.0 0.00 0.00 0.00 89 1019.0
20190120170012 0 50 0.0 0.0 0.00 0.00 0.00 89 1018.0
20190120165013 0 50 0.0 0.0 0.00 0.00 0.00 89 1018.0
20190120164014 0 50 0.0 0.0 0.00 0.00 0.00 89 1018.0
20190120163014 0 50 0.0 0.0 0.00 0.00 0.00 89 1018.0
20190120162014 0 50 0.0 0.0 0.00 0.00 0.00 89 1018.0
20190120161014 0 50 0.0 0.0 0.00 0.00 0.00 89 1018.0
20190120160012 0 50 3.2 1.6 0.00 0.00 0.00 89 1018.0
20190120155014 0 50 3.2 8.0 0.00 0.00 0.00 89 1018.0
20190120154034 0 50 3.2 4.8 0.00 0.00 0.00 90 1018.0
20190120153014 0 50 3.2 11.3 0.00 0.00 0.00 90 1017.0
20190120152013 0 40 3.2 3.2 0.00 0.00 0.00 90 1017.0
20190120150011 0 40 3.2 8.0 0.00 0.00 0.00 90 1017.0
20190120145014 0 35 1.6 8.0 0.00 0.00 0.00 90 1017.0
20190120144035 0 30 1.6 8.0 0.00 0.00 0.00 90 1017.0
20190120143014 0 50 3.2 9.7 0.00 0.00 0.00 90 1017.0
20190120142012 0 45 4.8 4.8 0.00 0.00 0.00 90 1017.0
20190120141018 0 55 8.0 11.3 0.00 0.00 0.00 90 1017.0
20190120140011 0 45 8.0 9.7 0.00 0.00 0.00 90 1017.0
20190120135014 0 55 8.0 9.7 0.00 0.00 0.00 90 1017.0
20190120133014 0 50 9.7 11.3 0.00 0.00 0.00 90 1017.0
20190120132014 0 35 9.7 12.9 0.00 0.00 0.00 90 1017.0
20190120131017 0 50 8.0 9.7 0.00 0.00 0.00 90 1017.0
20190120130011 0 45 4.8 9.7 0.00 0.00 0.00 90 1017.0
20190120124015 0 40 4.8 8.0 0.00 0.00 0.00 90 1017.0
20190120123037 0 50 3.2 9.7 0.00 0.00 0.00 90 1017.0
20190120122014 0 40 3.2 9.7 0.00 0.00 0.00 90 1017.0
20190120120013 0 55 1.6 1.6 0.00 0.00 0.00 90 1017.0
20190120115014 0 60 3.2 4.8 0.00 0.00 0.00 90 1017.0
20190120114015 0 70 3.2 8.0 0.00 0.00 0.00 89 1017.0
20190120113016 -1 105 3.2 11.3 0.00 0.00 0.00 89 1017.0
20190120112015 -1 105 1.6 4.8 0.00 0.00 0.00 89 1017.0
20190120111016 -1 105 3.2 4.8 0.00 0.00 0.00 88 1017.0
20190120110034 -2 105 3.2 9.7 0.00 0.00 0.00 88 1017.0
20190120105016 -2 105 3.2 8.0 0.00 0.00 0.00 88 1017.0
20190120104036 -2 105 1.6 4.8 0.00 0.00 0.00 88 1016.0
20190120103036 -2 105 1.6 8.0 0.00 0.00 0.00 88 1016.0
20190120102015 -2 105 0.0 8.0 0.00 0.00 0.00 88 1016.0
20190120101037 -2 105 0.0 0.0 0.00 0.00 0.00 88 1016.0
20190120100013 -2 105 0.0 0.0 0.00 0.00 0.00 88 1016.0
20190120095015 -3 105 0.0 0.0 0.00 0.00 0.00 88 1016.0
20190120094015 -3 105 0.0 1.6 0.00 0.00 0.00 88 1016.0
20190120093037 -3 105 1.6 1.6 0.00 0.00 0.00 87 1016.0
20190120092014 -3 105 3.2 4.8 0.00 0.00 0.00 87 1016.0
20190120091015 -3 105 1.6 4.8 0.00 0.00 0.00 87 1016.0
20190120090013 -3 105 0.0 4.8 0.00 0.00 0.00 87 1016.0
20190120085035 -3 105 0.0 0.0 0.00 0.00 0.00 87 1015.0
20190120084015 -3 105 0.0 0.0 0.00 0.00 0.00 87 1015.0
20190120083013 -3 105 0.0 0.0 0.00 0.00 0.00 87 1015.0
20190120082015 -3 105 0.0 0.0 0.00 0.00 0.00 87 1015.0
20190120081017 -3 105 0.0 0.0 0.00 0.00 0.00 87 1015.0
20190120080013 -3 105 0.0 0.0 0.00 0.00 0.00 87 1015.0
20190120075015 -3 105 0.0 0.0 0.00 0.00 0.00 87 1015.0
20190120074016 -3 105 0.0 0.0 0.00 0.00 0.00 87 1014.0
20190120073015 -3 105 0.0 0.0 0.00 0.00 0.00 87 1014.0
20190120071016 -3 105 0.0 0.0 0.00 0.00 0.00 88 1014.0
20190120070013 26 105 0.0 0.0 0.00 0.00 0.00 43 1014.0
20190120065015 -3 105 0.0 0.0 0.00 0.00 0.00 88 1014.0
20190120064014 -3 105 0.0 0.0 0.00 0.00 0.00 88 1014.0
20190120063036 -3 105 0.0 0.0 0.00 0.00 0.00 88 1014.0
20190120062014 -3 105 0.0 0.0 0.00 0.00 0.00 88 1014.0
20190120061016 -3 105 0.0 0.0 0.00 0.00 0.00 88 1014.0
20190120060013 -3 105 0.0 0.0 0.00 0.00 0.00 88 1013.0
20190120055035 -3 105 0.0 0.0 0.00 0.00 0.00 88 1014.0
20190120053015 -2 105 0.0 0.0 0.00 0.00 0.00 88 1013.0
20190120052037 -2 105 0.0 0.0 0.00 0.00 0.00 88 1013.0
20190120051015 -2 105 0.0 0.0 0.00 0.00 0.00 88 1013.0
20190120045014 -2 105 0.0 0.0 0.00 0.00 0.00 88 1013.0
20190120044016 -2 105 0.0 0.0 0.00 0.00 0.00 88 1013.0
20190120043035 -2 105 0.0 0.0 0.00 0.00 0.00 88 1013.0
20190120042014 -2 105 0.0 0.0 0.00 0.00 0.00 88 1013.0
20190120041016 -2 105 0.0 0.0 0.00 0.00 0.00 89 1013.0
20190120040013 -2 105 0.0 0.0 0.00 0.00 0.00 89 1013.0
20190120035014 -2 105 0.0 0.0 0.00 0.00 0.00 89 1013.0
20190120034036 -2 105 0.0 0.0 0.00 0.00 0.00 89 1013.0
20190120033015 -2 105 0.0 0.0 0.00 0.00 0.00 89 1013.0
20190120032014 -2 105 0.0 0.0 0.00 0.00 0.00 89 1013.0
20190120031015 -2 105 0.0 0.0 0.00 0.00 0.00 89 1013.0